Regional Weather Roundup
Issued by NWS

Home | Current Version | Previous Version | Text Only | Print | Product List | Glossary On
Versions: 1 2 3 4 5 6 7 8 9 10 11 12 13 14 15 16 17 18 19 20 21 22 23 24 25 26 27
000
ASPQ40 PGUM 261210
RWRPQ
WEATHER ROUNDUP FOR THE MARIANAS AND MICRONESIA
NATIONAL WEATHER SERVICE TIYAN GU
1000 PM CHST SAT MAY 26 2018

GUZ001>004-261300-
MARIANA ISLANDS-

CITY           SKY/WX    TMP DP  RH WIND       PRES   REMARKS
GUAM AIRPORT   PTCLDY    84  79  84 E12       29.90R HX  96
ANDERSEN AFB   NOT AVBL
ROTA AIRPORT   NOT AVBL
TINIAN AP      NOT AVBL
SAIPAN AP      MOCLDY    82  79  89 E12       29.90S HX  93

$$

PMZ161-261300-
REPUBLIC OF PALAU-

CITY           SKY/WX    TMP DP  RH WIND       PRES   REMARKS
KOROR AP       CLOUDY    82  77  83 NE6       29.80S HX  91
KOROR WSO      CLOUDY    82  79  89 NE3       29.82R HX  93

$$

PMZ171>174-261300-
FEDERATED STATES OF MICRONESIA-

CITY           SKY/WX    TMP DP  RH WIND       PRES   REMARKS
YAP AIRPORT    MOCLDY    84  79  84 VRB6      29.81F HX  96
CHUUK AP       CLOUDY    84  81  89 E7        29.82F HX  98
POHNPEI AP     CLOUDY    82  79  89 E12       29.81F HX  93
POHNPEI WSO    CLOUDY    82  77  83 NE6       29.85S HX  91
KOSRAE AP      NOT AVBL

$$

PMZ181-261300-
REPUBLIC OF THE MARSHALL ISLANDS-

CITY           SKY/WX    TMP DP  RH WIND       PRES   REMARKS
KWAJALEIN AP   PTCLDY    82  79  89 E20       29.86F HX  93
MAJURO AP      NOT AVBL
MAJURO WSO     MOCLDY    82  77  83 E14       29.83S HX  91

$$





USA.gov is the U.S. government's official web portal to all federal, state and local government web resources and services.